Weather History for Kodiak, AK

Change the Weather History Date:

Tuesday, May 7, 2013

  Actual Average Record
Temperature  
Mean Temperature 40 °F 43 °F  
Max Temperature 42 °F 48 °F 58 °F (1996)
Min Temperature 37 °F 37 °F 22 °F (1972)
Degree Days  
Heating Degree Days 25 22  
Month to date heating degree days 176 161  
Since 1 July heating degree days 8046 7853  
Cooling Degree Days 0    
Month to date cooling degree days 0  
Year to date cooling degree days 0  
Moisture  
Dew Point 30 °F    
Average Humidity 69    
Maximum Humidity 76    
Minimum Humidity 55    
Precipitation  
Precipitation 0.00 in 0.16 in 1.42 in (2008)
Month to date precipitation 0.55 1.21  
Year to date precipitation 23.77 26.98  
Snow  
Snow 0.00 in 0.00 in 0.20 in (1949)
Month to date snowfall 0.9 0.1  
Snow Depth 0.00 in    
Sea Level Pressure  
Sea Level Pressure 30.26 in    
Wind  
Wind Speed 5 mph (NW)    
Max Wind Speed 13 mph    
Max Gust Speed 15 mph    
Visibility 10 miles    
Events      
T = Trace of Precipitation, MM = Missing Value Source: NWS Daily Summary

Daily Weather History Graph

Daily Weather History Graph

Search for Another Location

Airport:

Trip Planner

Search our weather history database for the weather conditions in past years. The results will help you decide how hot, cold, wet, or windy it might be!

Date:

Astronomy

May. 07, 2013 Rise Set
Actual Time 6:03 AM AKDT 10:11 PM AKDT
Civil Twilight 5:12 AM AKDT 11:02 PM AKDT
Nautical Twilight 3:55 AM AKDT 12:21 AM AKDT
Astronomical Twilight 2:38 AM AKDT 1:33 AM AKDT
Moon 5:11 AM AKDT (5/7) 8:00 PM AKDT (5/7)
Length of Visible Light 17h 49m
Length of Day
16h 07m
Waning Crescent, 5% of the Moon is Illuminated
May 7
Waning Crescent
May 9
New
May 17
First Quarter
May 24
Full
May 31
Last Quarter

Hourly Weather History & Observations

Time (AKDT) Temp. Windchill Dew Point Humidity Pressure Visibility Wind Dir Wind Speed Gust Speed Precip Events Conditions
12:53 AM 37.9 °F 33.5 °F 30.0 °F 73% 30.25 in 10.0 mi NW 5.8 mph - N/A   Overcast
1:53 AM 37.9 °F 34.4 °F 30.0 °F 73% 30.27 in 10.0 mi NNW 4.6 mph - N/A   Overcast
2:01 AM 37.4 °F 32.8 °F 30.2 °F 75% 30.26 in 10.0 mi NNW 5.8 mph - N/A   Overcast
2:48 AM 37.4 °F 32.8 °F 30.2 °F 75% 30.26 in 10.0 mi NNW 5.8 mph - N/A   Overcast
2:53 AM 37.9 °F 32.1 °F 30.0 °F 73% 30.26 in 10.0 mi NW 8.1 mph - N/A   Overcast
3:51 AM 37.4 °F 32.8 °F 28.4 °F 70% 30.25 in 10.0 mi NW 5.8 mph - N/A   Overcast
3:53 AM 37.9 °F 33.5 °F 28.9 °F 70% 30.26 in 10.0 mi NW 5.8 mph - N/A   Overcast
4:11 AM 37.4 °F 32.8 °F 28.4 °F 70% 30.25 in 10.0 mi NW 5.8 mph - N/A   Overcast
4:53 AM 37.0 °F 34.5 °F 30.0 °F 76% 30.26 in 10.0 mi WNW 3.5 mph - N/A   Overcast
5:37 AM 37.4 °F 33.8 °F 30.2 °F 75% 30.25 in 10.0 mi NW 4.6 mph - N/A   Overcast
5:53 AM 37.0 °F 33.3 °F 30.0 °F 76% 30.25 in 10.0 mi NW 4.6 mph - N/A   Overcast
6:06 AM 37.4 °F 33.8 °F 30.2 °F 75% 30.25 in 10.0 mi NNW 4.6 mph - N/A   Overcast
6:53 AM 37.0 °F 34.5 °F 30.0 °F 76% 30.26 in 10.0 mi NW 3.5 mph - N/A   Overcast
7:53 AM 37.9 °F - 30.0 °F 73% 30.26 in 10.0 mi Calm Calm - N/A   Overcast
8:53 AM 39.0 °F - 30.0 °F 70% 30.26 in 10.0 mi Calm Calm - N/A   Overcast
9:53 AM 39.0 °F - 28.9 °F 67% 30.26 in 10.0 mi Calm Calm - N/A   Overcast
10:53 AM 39.9 °F 36.7 °F 27.0 °F 60% 30.27 in 10.0 mi SSW 4.6 mph - N/A   Overcast
11:53 AM 41.0 °F 39.0 °F 26.1 °F 55% 30.27 in 10.0 mi SE 3.5 mph - N/A   Overcast
12:53 PM 39.9 °F 32.9 °F 30.9 °F 70% 30.28 in 10.0 mi SE 11.5 mph - N/A   Overcast
1:53 PM 41.0 °F 38.0 °F 28.9 °F 62% 30.28 in 10.0 mi South 4.6 mph - N/A   Overcast
2:53 PM 41.0 °F 35.2 °F 30.9 °F 67% 30.28 in 10.0 mi SE 9.2 mph - N/A   Overcast
3:53 PM 39.9 °F 36.7 °F 30.0 °F 68% 30.28 in 10.0 mi ESE 4.6 mph - N/A   Overcast
4:53 PM 41.0 °F 37.1 °F 32.0 °F 70% 30.27 in 10.0 mi East 5.8 mph - N/A   Overcast
5:53 PM 39.9 °F - 30.9 °F 70% 30.27 in 10.0 mi Calm Calm - N/A   Overcast
6:53 PM 39.9 °F - 32.0 °F 73% 30.27 in 10.0 mi Calm Calm - 0.00 in   Overcast
7:53 PM 41.0 °F - 30.9 °F 67% 30.26 in 10.0 mi Calm Calm - N/A   Overcast
8:53 PM 41.0 °F - 30.0 °F 65% 30.26 in 10.0 mi Calm Calm - N/A   Overcast
9:53 PM 39.0 °F 35.7 °F 30.0 °F 70% 30.27 in 10.0 mi South 4.6 mph - N/A   Overcast
10:53 PM 37.9 °F - 28.9 °F 70% 30.27 in 10.0 mi Calm Calm - N/A   Mostly Cloudy
11:53 PM 37.0 °F - 30.0 °F 76% 30.27 in 10.0 mi Calm Calm - N/A   Overcast